Weather reports worldwide

Advertisment
Lulea/Kallax, Sweden (2186): temperature & dewpoint: 18.06.2017 05:00:00 - 24.06.2017 05:00:00 (CEST)Lulea/Kallax, Sweden (2186): wind speed & gusts: 18.06.2017 05:00:00 - 24.06.2017 05:00:00 (CEST)Lulea/Kallax, Sweden (2186): wind direction: 18.06.2017 05:00:00 - 24.06.2017 05:00:00 (CEST)Lulea/Kallax, Sweden (2186): reduced air pressure: 18.06.2017 05:00:00 - 24.06.2017 05:00:00 (CEST)Lulea/Kallax, Sweden (2186): visibility: 18.06.2017 05:00:00 - 24.06.2017 05:00:00 (CEST)Lulea/Kallax, Sweden (2186): precipitation: 18.06.2017 05:00:00 - 24.06.2017 05:00:00 (CEST)
Date & Time tt [°C] td [°C] ff [km/h] ff [kn] fx [km/h] fx [kn] dd ppp [hPa] vv [km] rr [mm]
24.06.2017 05:00:00 9,7 7,6 9 5 14 8 SSE 1003,5 10 0,0
24.06.2017 04:00:00 9,3 7,7 5 3 7 4 SSE 1003,9 10 0,0
24.06.2017 03:00:00 8,6 7,1 5 3 7 4 S 1004,3 10 0,0
24.06.2017 02:00:00 8,4 6,4 2 1 7 4 - 1004,8 10 0,0
24.06.2017 01:00:00 9,1 6,2 4 2 7 4 - 1004,9 10 0,0
24.06.2017 00:00:00 9,2 6,3 8 4 11 6 WSW 1005,4 10 0,0
23.06.2017 23:00:00 9,4 6,5 5 3 11 6 SSW 1005,5 10 0,0
23.06.2017 22:00:00 9,7 6,2 5 3 14 8 SSW 1005,9 10 0,0
23.06.2017 21:00:00 9,9 6,1 8 4 14 8 SSW 1006,1 10 0,0
23.06.2017 20:00:00 10,0 5,6 9 5 18 10 SSW 1006,4 10 0,0
23.06.2017 19:00:00 10,2 5,4 11 6 22 12 SSW 1006,8 10 0,0
23.06.2017 18:00:00 11,7 5,3 13 7 25 14 S 1006,8 10 0,0
23.06.2017 17:00:00 11,9 5,1 13 7 18 10 S 1006,9 10 0,0
23.06.2017 16:00:00 11,1 5,4 15 8 22 12 S 1007,3 10 0,0
23.06.2017 15:00:00 11,2 4,9 11 6 18 10 SSE 1007,4 10 0,0
23.06.2017 14:00:00 11,4 4,4 8 4 14 8 NE 1007,5 10 0,0
23.06.2017 13:00:00 10,9 4,1 9 5 18 10 N 1007,8 10 0,0
23.06.2017 12:00:00 10,5 4,2 9 5 18 10 N 1008,2 10 0,0
23.06.2017 11:00:00 9,9 4,1 13 7 22 12 NNW 1008,3 10 0,0
23.06.2017 10:00:00 9,1 3,7 15 8 25 14 NNW 1008,2 10 0,0
23.06.2017 09:00:00 8,6 4,0 15 8 25 14 N 1008,0 10 0,0
23.06.2017 08:00:00 8,2 4,0 13 7 25 14 N 1008,0 10 0,0
23.06.2017 07:00:00 7,8 4,0 13 7 25 14 N 1008,0 10 0,0
23.06.2017 06:00:00 7,3 4,3 11 6 22 12 NNW 1007,9 10 0,0
23.06.2017 05:00:00 7,2 4,3 13 7 22 12 NNW 1007,8 10 0,0
23.06.2017 04:00:00 7,1 4,4 15 8 22 12 NNW 1007,8 10 0,0
23.06.2017 03:00:00 7,2 4,2 15 8 25 14 NNW 1007,7 10 0,0
23.06.2017 02:00:00 7,5 3,7 15 8 25 14 NNW 1007,5 10 0,0
23.06.2017 01:00:00 8,0 3,6 13 7 25 14 N 1007,2 10 0,0
23.06.2017 00:00:00 8,4 3,4 13 7 25 14 NNW 1007,0 10 0,0
22.06.2017 23:00:00 8,4 3,4 15 8 25 14 NNW 1006,9 10 0,0
22.06.2017 22:00:00 8,6 3,4 13 7 25 14 N 1006,7 10 0,0
22.06.2017 21:00:00 9,1 3,5 13 7 32 18 N 1006,7 10 0,0
22.06.2017 20:00:00 9,1 3,3 16 9 32 18 N 1006,5 10 0,0
22.06.2017 19:00:00 9,0 3,6 16 9 29 16 NNW 1006,4 10 0,0
22.06.2017 18:00:00 9,2 3,2 18 10 32 18 N 1006,2 10 0,0
22.06.2017 17:00:00 9,4 3,6 24 13 36 19 NNW 1005,9 10 0,1
22.06.2017 16:00:00 9,0 3,6 21 11 36 19 N 1005,8 10 0,0
22.06.2017 15:00:00 8,9 3,7 21 11 36 19 NNW 1005,8 10 0,0
22.06.2017 14:00:00 8,4 4,2 22 12 40 21 NNW 1005,5 10 0,1
22.06.2017 13:00:00 8,3 3,4 21 11 36 19 NNW 1005,4 10 0,1
22.06.2017 12:00:00 8,6 4,2 22 12 36 19 N 1005,0 10 0,2
22.06.2017 11:00:00 8,3 2,7 21 11 36 19 NNW 1004,9 10 0,0
22.06.2017 10:00:00 7,7 3,4 24 13 36 19 NNW 1004,6 10 0,0
22.06.2017 09:00:00 6,3 3,3 22 12 36 19 NNW 1004,6 10 0,2
22.06.2017 08:00:00 5,8 2,3 18 10 36 19 NNW 1004,5 10 0,0
22.06.2017 07:00:00 6,3 2,6 26 14 40 21 NW 1004,4 10 0,0
22.06.2017 06:00:00 5,7 2,2 22 12 36 19 NNW 1004,5 10 0,0
22.06.2017 05:00:00 5,4 1,5 18 10 32 18 NNW 1004,7 10 0,0
22.06.2017 04:00:00 5,4 1,3 18 10 32 18 NNW 1004,6 10 0,0
22.06.2017 03:00:00 5,0 1,3 16 9 25 14 NNW 1004,7 10 0,0
22.06.2017 02:00:00 6,0 1,3 16 9 32 18 NNW 1004,8 10 0,0
22.06.2017 01:00:00 6,8 1,5 18 10 29 16 NNW 1004,8 10 0,0
22.06.2017 00:00:00 8,1 2,1 13 7 25 14 N 1004,5 10 0,0
21.06.2017 23:00:00 8,6 2,4 15 8 25 14 NNW 1004,3 10 0,0
21.06.2017 22:00:00 10,0 2,4 13 7 25 14 N 1003,8 10 0,0
21.06.2017 21:00:00 11,2 3,5 13 7 22 12 NE 1003,1 10 0,0
21.06.2017 20:00:00 12,5 4,2 8 4 22 12 NNE 1002,6 10 0,0
21.06.2017 19:00:00 13,1 3,7 2 1 22 12 - 1002,3 10 0,0
21.06.2017 18:00:00 12,4 7,5 11 6 18 10 S 1002,3 10 0,0
21.06.2017 17:00:00 11,5 7,4 11 6 18 10 S 1002,4 10 0,0
21.06.2017 16:00:00 12,8 4,0 9 5 14 8 SSW 1002,4 10 0,0
21.06.2017 15:00:00 11,6 6,6 11 6 14 8 S 1002,6 10 0,0
21.06.2017 14:00:00 11,9 6,6 4 2 14 8 - 1002,5 10 0,0
21.06.2017 13:00:00 10,5 6,6 4 2 18 10 - 1002,6 10 1,0
21.06.2017 12:00:00 11,9 4,6 11 6 25 14 N 1002,3 10 0,0
21.06.2017 11:00:00 11,6 4,8 16 9 25 14 NNW 1002,4 10 0,0
21.06.2017 10:00:00 10,2 3,9 8 4 25 14 N 1002,5 10 0,0
21.06.2017 09:00:00 10,0 3,7 15 8 29 16 NNW 1002,5 10 0,0
21.06.2017 08:00:00 9,1 2,9 18 10 32 18 NNW 1002,4 10 0,0
21.06.2017 07:00:00 9,0 3,0 16 9 29 16 N 1002,0 10 0,0
21.06.2017 06:00:00 8,3 3,1 15 8 29 16 N 1001,7 10 0,0
21.06.2017 05:00:00 8,1 4,3 15 8 25 14 NNE 1001,3 10 0,0
21.06.2017 04:00:00 9,1 5,3 13 7 25 14 NNE 1000,7 10 0,0
21.06.2017 03:00:00 9,9 8,3 8 4 22 12 N 999,8 10 0,0
21.06.2017 02:00:00 9,9 8,3 9 5 18 10 N 999,1 10 0,9
21.06.2017 01:00:00 10,3 7,7 15 8 22 12 NNW 998,6 10 0,3
21.06.2017 00:00:00 10,8 8,4 11 6 18 10 N 998,2 10 0,2
20.06.2017 23:00:00 11,3 8,2 11 6 22 12 N 998,0 10 5,0
20.06.2017 22:00:00 14,4 6,0 5 3 14 8 WNW 997,6 10 0,0
20.06.2017 21:00:00 14,9 5,9 8 4 14 8 NNE 997,5 10 0,0
20.06.2017 20:00:00 15,5 5,1 11 6 29 16 NE 997,1 10 0,0
20.06.2017 19:00:00 16,5 5,5 13 7 29 16 N 996,8 10 0,0
20.06.2017 18:00:00 16,5 4,8 21 11 32 18 N 996,9 10 0,0
20.06.2017 17:00:00 17,3 4,3 13 7 36 19 N 996,6 10 0,0
20.06.2017 16:00:00 17,2 4,8 22 12 43 23 NNW 996,8 10 0,0
20.06.2017 15:00:00 15,3 6,6 15 8 40 21 SW 997,0 10 0,2
20.06.2017 14:00:00 17,1 5,7 21 11 29 16 S 996,7 10 0,0
20.06.2017 13:00:00 17,5 4,4 11 6 18 10 E 996,9 10 0,0
20.06.2017 12:00:00 17,3 4,3 11 6 18 10 SE 997,6 10 0,0
20.06.2017 11:00:00 16,0 4,4 8 4 25 14 - 998,1 10 0,0
20.06.2017 10:00:00 15,4 3,8 11 6 25 14 NW 998,5 10 0,0
20.06.2017 09:00:00 14,5 4,8 11 6 22 12 NW 998,8 10 0,0
20.06.2017 08:00:00 13,8 4,4 11 6 22 12 NW 999,4 10 0,0
20.06.2017 07:00:00 13,1 5,0 11 6 25 14 NNW 999,7 10 0,0
20.06.2017 06:00:00 12,8 5,2 13 7 25 14 NW 1000,3 10 0,0
20.06.2017 05:00:00 11,3 4,5 13 7 18 10 WNW 1000,8 10 0,0
20.06.2017 04:00:00 10,3 4,7 4 2 7 4 W 1001,2 10 0,0
20.06.2017 03:00:00 9,5 4,3 9 5 7 4 WNW 1001,7 10 0,0
20.06.2017 02:00:00 9,6 3,8 0 0 11 6 N 1002,1 10 0,0
20.06.2017 01:00:00 11,0 3,5 8 4 14 8 W 1002,4 10 0,0
20.06.2017 00:00:00 12,5 3,4 9 5 14 8 W 1002,7 10 0,0
19.06.2017 23:00:00 14,2 3,0 8 4 22 12 W 1003,2 10 0,0
19.06.2017 22:00:00 16,0 2,7 13 7 25 14 WNW 1003,3 10 0,0
19.06.2017 21:00:00 17,1 2,7 18 10 32 18 WNW 1003,7 10 0,0
19.06.2017 20:00:00 17,9 2,2 16 9 36 19 NW 1003,7 10 0,0
19.06.2017 19:00:00 18,6 2,0 22 12 36 19 NW 1003,8 10 0,0
19.06.2017 18:00:00 18,9 1,4 26 14 36 19 WNW 1003,9 10 0,0
19.06.2017 17:00:00 19,6 2,0 24 13 36 19 NW 1003,8 10 0,0
19.06.2017 16:00:00 18,7 2,1 28 15 36 19 WNW 1004,1 10 0,0
19.06.2017 15:00:00 17,6 3,1 16 9 36 19 WNW 1004,5 10 0,0
19.06.2017 14:00:00 16,8 3,5 28 15 50 27 NW 1004,7 10 0,0
19.06.2017 13:00:00 17,9 4,5 18 10 43 23 WNW 1004,6 10 0,0
19.06.2017 12:00:00 17,3 3,9 21 11 36 19 NW 1004,4 10 0,0
19.06.2017 11:00:00 17,1 4,5 24 13 36 19 WNW 1004,5 10 0,0
19.06.2017 10:00:00 16,4 5,1 22 12 36 19 WNW 1004,4 10 0,0
19.06.2017 09:00:00 15,5 5,4 18 10 32 18 NW 1004,3 10 0,0
19.06.2017 08:00:00 14,5 5,8 22 12 36 19 NW 1004,3 10 0,0
19.06.2017 07:00:00 13,2 5,6 26 14 40 21 NW 1004,4 10 0,0
19.06.2017 06:00:00 12,7 5,6 22 12 32 18 NW 1004,5 10 0,0
19.06.2017 05:00:00 11,9 5,3 16 9 29 16 WNW 1004,5 10 0,0
19.06.2017 04:00:00 11,0 4,5 15 8 22 12 W 1004,8 10 0,0
19.06.2017 03:00:00 11,2 4,0 15 8 25 14 WNW 1004,8 10 0,0
19.06.2017 02:00:00 11,8 4,3 16 9 25 14 WNW 1004,8 10 0,0
19.06.2017 01:00:00 12,3 4,3 16 9 36 19 WNW 1004,8 10 0,0
19.06.2017 00:00:00 13,9 4,2 21 11 32 18 WNW 1004,4 10 0,0
18.06.2017 23:00:00 15,1 4,8 21 11 32 18 WNW 1004,3 10 0,0
18.06.2017 22:00:00 16,1 5,7 22 12 40 21 WNW 1003,9 10 0,0
18.06.2017 21:00:00 17,5 5,7 26 14 40 21 WNW 1003,4 10 0,0
18.06.2017 20:00:00 17,7 7,4 15 8 25 14 NNW 1003,1 10 0,0
18.06.2017 19:00:00 17,1 9,0 13 7 43 23 W 1003,2 10 0,3
18.06.2017 18:00:00 17,9 7,0 18 10 43 23 NW 1003,1 10 0,3
18.06.2017 17:00:00 19,0 6,1 26 14 36 19 WNW 1002,9 10 0,0
18.06.2017 16:00:00 19,7 6,6 21 11 40 21 NW 1002,5 10 0,0
18.06.2017 15:00:00 18,8 7,9 34 18 47 25 NW 1002,7 10 0,0
18.06.2017 14:00:00 18,2 8,2 26 14 40 21 WNW 1002,7 10 0,0
18.06.2017 13:00:00 16,8 8,0 16 9 32 18 NW 1002,9 10 0,0
18.06.2017 12:00:00 17,3 9,2 21 11 29 16 WNW 1003,0 10 0,0
18.06.2017 11:00:00 16,4 8,4 16 9 25 14 W 1003,2 10 0,0
18.06.2017 10:00:00 15,9 8,9 13 7 29 16 WNW 1003,3 10 0,0
18.06.2017 09:00:00 15,0 9,6 15 8 29 16 W 1003,5 10 0,0
18.06.2017 08:00:00 13,0 11,1 11 6 14 8 W 1003,8 10 0,0
18.06.2017 07:00:00 12,4 11,0 9 5 22 12 W 1004,4 10 0,0
18.06.2017 06:00:00 12,8 11,0 16 9 25 14 WNW 1004,6 10 1,0
18.06.2017 05:00:00 13,5 11,4 15 8 22 12 W 1005,1 10 0,5

tt = temperature
td = dewpoint
ff = wind speed
fx = gusts
dd = wind direction
ppp = reduced air pressure
vv = visibility
rr = precipitation

Next stations